Weather History for KSYR - March, 2013

Change the Weather History Date:

Thursday, March 21, 2013

  Actual Average Record
Temperature  
Mean Temperature 27 °F 36 °F  
Max Temperature 32 °F 45 °F 81 °F (2012)
Min Temperature 21 °F 27 °F 0 °F (1988)
Degree Days  
Heating Degree Days 38 29  
Month to date heating degree days 688 689  
Since 1 July heating degree days 5059 5520  
Cooling Degree Days 0 0  
Month to date cooling degree days 0 0  
Year to date cooling degree days 0 0  
Moisture  
Dew Point 17 °F    
Average Humidity 60    
Maximum Humidity 85    
Minimum Humidity 45    
Precipitation  
Precipitation T in 0.10 in 1.36 in (1945)
Month to date precipitation 1.39 1.92  
Year to date precipitation 5.81 6.49  
Snow  
Snow 0.10 in 0.50 in 6.50 in (1974)
Month to date snowfall 13.4 14.4  
Since 1 July snowfall 96.6 116.3  
Snow Depth 4.00 in    
Sea Level Pressure  
Sea Level Pressure 29.75 in    
Wind  
Wind Speed 11 mph (West)    
Max Wind Speed 18 mph    
Max Gust Speed 28 mph    
Visibility 10 miles    
Events Snow    
T = Trace of Precipitation, MM = Missing Value Source: NWS Daily Summary

Daily Weather History Graph

Daily Weather History Graph

Search for Another Location

Airport or City:

Trip Planner

Search our weather history database for the weather conditions in past years. The results will help you decide how hot, cold, wet, or windy it might be!

Date:

Astronomy

Mar. 21, 2013 Rise Set
Actual Time 7:05 AM EDT 7:18 PM EDT
Civil Twilight 6:37 AM EDT 7:46 PM EDT
Nautical Twilight 6:03 AM EDT 8:19 PM EDT
Astronomical Twilight 5:29 AM EDT 8:54 PM EDT
Moon 1:38 PM EDT (3/21) 3:33 AM EDT (3/21)
Length of Visible Light 13h 09m
Length of Day
12h 12m
Waxing Gibbous, 68% of the Moon is Illuminated
Mar 21
Waxing Gibbous
Mar 27
Full
Apr 3
Last Quarter
Apr 10
New
Apr 18
First Quarter

Hourly Weather History & Observations

Time (EDT) Temp. Windchill Dew Point Humidity Pressure Visibility Wind Dir Wind Speed Gust Speed Precip Events Conditions
12:54 AM 27.1 °F 16.4 °F 18.7 °F 70% 29.80 in 10.0 mi WSW 12.7 mph - N/A   Scattered Clouds
1:54 AM 26.6 °F 16.8 °F 17.6 °F 69% 29.81 in 10.0 mi WSW 10.4 mph - N/A   Partly Cloudy
2:54 AM 26.1 °F 16.2 °F 16.9 °F 68% 29.79 in 10.0 mi WSW 10.4 mph - N/A   Partly Cloudy
3:54 AM 25.2 °F 16.5 °F 15.4 °F 67% 29.78 in 10.0 mi WSW 8.1 mph - N/A   Partly Cloudy
4:54 AM 24.6 °F 16.7 °F 15.4 °F 68% 29.75 in 10.0 mi WSW 6.9 mph - N/A   Partly Cloudy
5:54 AM 23.7 °F 15.6 °F 15.8 °F 72% 29.75 in 10.0 mi WSW 6.9 mph - N/A   Partly Cloudy
6:54 AM 23.7 °F 12.6 °F 15.6 °F 71% 29.75 in 10.0 mi WSW 11.5 mph - N/A   Scattered Clouds
7:54 AM 23.9 °F 13.5 °F 14.9 °F 69% 29.77 in 10.0 mi WSW 10.4 mph - N/A   Scattered Clouds
8:50 AM 25.5 °F 13.8 °F 15.3 °F 65% 29.77 in 10.0 mi West 13.8 mph - N/A   Scattered Clouds
9:54 AM 27.1 °F 15.9 °F 15.3 °F 61% 29.77 in 10.0 mi West 13.8 mph - N/A   Scattered Clouds
10:54 AM 29.5 °F 19.3 °F 14.0 °F 53% 29.77 in 10.0 mi West 12.7 mph - N/A   Scattered Clouds
11:54 AM 31.8 °F 21.0 °F 14.9 °F 50% 29.76 in 10.0 mi WSW 16.1 mph - N/A   Scattered Clouds
12:54 PM 33.4 °F 23.1 °F 14.7 °F 46% 29.75 in 10.0 mi West 16.1 mph - N/A   Scattered Clouds
1:54 PM 33.3 °F 23.7 °F 14.0 °F 45% 29.74 in 10.0 mi NW 13.8 mph - N/A   Mostly Cloudy
2:54 PM 31.1 °F 22.4 °F 13.3 °F 48% 29.71 in 10.0 mi WNW 10.4 mph - N/A   Mostly Cloudy
3:54 PM 32.2 °F 22.3 °F 13.1 °F 45% 29.71 in 10.0 mi WNW 13.8 mph - N/A   Mostly Cloudy
4:54 PM 32.2 °F 22.3 °F 14.0 °F 47% 29.71 in 10.0 mi West 13.8 mph - N/A   Mostly Cloudy
5:54 PM 32.0 °F 22.5 °F 13.6 °F 47% 29.71 in 10.0 mi WSW 12.7 mph - N/A   Overcast
6:54 PM 30.4 °F 21.0 °F 12.4 °F 47% 29.74 in 10.0 mi West 11.5 mph - N/A   Mostly Cloudy
7:54 PM 30.0 °F 20.5 °F 14.4 °F 52% 29.73 in 10.0 mi West 11.5 mph - N/A   Scattered Clouds
8:52 PM 28.6 °F 19.9 °F 19.2 °F 68% 29.75 in 9.0 mi West 9.2 mph - 0.00 in   Overcast
9:52 PM 28.4 °F 21.2 °F 22.5 °F 78% 29.75 in 8.0 mi SW 6.9 mph - 0.00 in Snow Light Snow
10:54 PM 27.9 °F 19.8 °F 22.5 °F 80% 29.72 in 10.0 mi SW 8.1 mph - 0.00 in Snow Light Snow
11:54 PM 28.6 °F 18.7 °F 22.3 °F 77% 29.71 in 9.0 mi WSW 11.5 mph - 0.00 in Snow Light Snow